Lid_Strength_Index
4 5 4 4 3 3 3 2 2 1 1 2 2 1 1 1 1 0 -0 -0 -0 0 -1 -1 -1 -1 -1 -1 -1 -1 -1 -1
5 4 3 3 3 2 2 2 1 1 1 2 2 3 2 1 0 -1 -0 -0 -0 0 -0 -1 -1 -1 -0 0 -0 -1 -1 -1
6 5 3 4 4 3 2 3 3 3 3 3 3 2 1 1 0 -0 -0 0 0 -0 -0 -1 -1 -1 0 0 -0 -0 1 0
7 7 6 5 5 5 2 3 2 2 3 3 2 2 2 2 2 2 -1 1 1 1 1 1 1 -0 -1 0 0 0 1 1
7 7 7 6 6 5 4 3 3 3 3 2 1 2 4 4 3 3 3 3 3 1 1 2 1 -1 0 0 -0 -0 0 -0
6 6 7 6 7 7 6 5 4 3 4 4 4 3 5 5 5 5 5 5 5 4 5 5 3 2 2 2 1 1 1 1
7 7 7 7 7 7 7 7 5 5 3 5 5 5 6 6 7 7 6 6 6 6 6 6 5 4 4 4 3 2 1 2
7 6 6 7 7 7 7 7 7 6 5 3 5 7 8 8 8 8 7 6 6 7 7 6 5 4 4 4 3 1 1 3
6 6 6 7 7 8 8 8 8 8 7 6 5 6 8 9 9 8 8 7 6 6 7 6 6 7 6 5 4 3 1 1
7 7 7 7 7 7 8 8 8 7 7 7 7 7 7 8 8 8 7 6 6 6 7 7 7 7 6 6 5 5 3 2
7 8 7 7 8 8 8 8 8 8 8 8 8 8 8 9 8 8 8 7 7 7 7 7 6 7 7 6 6 6 6 4
8 8 8 8 8 8 8 8 9 9 9 10 10 10 10 9 9 9 8 7 7 6 5 6 6 7 7 6 5 6 6 6
7 8 8 8 8 9 8 8 8 8 8 8 9 10 10 10 10 10 9 7 6 6 6 6 6 6 6 6 5 5 5 5
7 8 8 8 8 8 8 8 9 8 8 8 8 9 9 9 9 9 8 8 7 6 6 6 6 5 5 5 5 4 4 4
8 9 9 9 8 8 8 9 9 8 8 7 8 8 9 9 9 9 9 8 7 6 6 5 5 5 4 4 4 3 3 3
9 9 9 9 8 8 8 9 8 8 8 8 8 8 8 8 8 8 8 7 7 6 6 5 5 4 4 4 3 3 3 3
10 10 10 9 9 9 9 8 8 8 8 8 8 8 8 8 7 7 7 7 6 6 6 5 5 5 5 5 5 5 5 5
10 11 10 10 9 9 8 8 8 8 8 8 8 8 8 8 7 7 6 6 5 5 6 5 5 5 5 5 5 6 6 6
12 11 10 10 9 8 8 8 8 8 8 8 8 8 8 7 7 6 6 5 5 5 6 6 6 6 6 6 6 6 6 6
12 11 11 10 10 8 8 8 8 8 7 7 8 7 6 7 7 7 6 6 6 6 7 7 7 7 6 6 6 6 7 7